Location: Ferchesar
(52.6477°N, 12.4298°E)
Time: 23:19:01
(UTC+01:00)

TIGRISAT - Pass Details

Date: 21 October 2021
Orbit: 603 x 689 km, 97.7° (Epoch: 30 November)

Event Time Altitude Azimuth Distance (km) Brightness Sun altitude
Rises 06:51:25 0° 155° (SSE) 3,051 ? -9.1°
Reaches altitude 10° 06:53:41 10° 152° (SSE) 2,138 ? -8.7°
Maximum altitude 06:58:19 65° 71° (ENE) 758 ? -8.0°
Drops below altitude 10° 07:02:57 10° 351° (N) 2,133 ? -7.3°
Sets 07:05:12 0° 349° (NNW) 3,043 ? -7.0°
